AirNav   TITAN Aviation Fuels
 
 1076 users online  

2N6 Redwing Airport
Jobstown, New Jersey, USA

GOING TO JOBSTOWN?


FAA INFORMATION EFFECTIVE 11 AUGUST 2022

Location

FAA Identifier: 2N6
Lat/Long: 40-01-37.5000N 074-41-27.2000W
40-01.625000N 074-41.453333W
40.0270833,-74.6908889
(estimated)
Elevation: 78 ft. / 24 m (estimated)
Variation: 12W (1985)
From city: 1 mile S of JOBSTOWN, NJ
Time zone: UTC -4 (UTC -5 during Standard Time)
Zip code: 08041

Airport Operations

Airport use: Open to the public
Activation date: 03/1960
Control tower: no
ARTCC: NEW YORK CENTER
FSS: MILLVILLE FLIGHT SERVICE STATION
NOTAMs facility: MIV (NOTAM-D service available)
Attendance: IREG
Wind indicator: yes
Segmented circle: no

Airport Communications

CTAF: 122.9
WX ASOS at VAY (9 nm SW): 119.325 (609-267-1176)
WX ASOS at PNE (15 nm W): PHONE 215-677-0146
WX ASOS at TTN (16 nm N): 126.775 (609-538-8690)
WX AWOS-3PT at MJX (19 nm E): 119.875 (732-797-2542)

Nearby radio navigation aids

VOR radial/distance  VOR name  Freq  Var
GXUr296/4.5MC GUIRE VORTAC110.6012W
RBVr231/13.8ROBBINSVILLE VORTAC113.8010W
ARDr154/16.8YARDLEY VOR/DME108.2010W
CYNr327/17.3COYLE VORTAC113.4010W
COLr246/29.7COLTS NECK VOR/DME115.4011W
VCNr033/32.0CEDAR LAKE VOR/DME115.2010W
SBJr186/33.4SOLBERG VOR/DME112.9010W
ACYr001/34.7ATLANTIC CITY VORTAC108.6010W
OODr060/36.7WOODSTOWN VORTAC112.8010W

 
NDB name  Hdg/Dist  Freq  Var  ID
LAKEHURST277/16.439611WNEL -. . .-..

Airport Services

Parking: tiedowns
Airframe service: MINOR
Powerplant service: MINOR
Bottled oxygen: NONE
Bulk oxygen: NONE

Runway Information

Runway 6/24

Dimensions: 1830 x 50 ft. / 558 x 15 m
Surface: turf, in fair condition
RUNWAY 6  RUNWAY 24
Traffic pattern: leftleft
Obstructions: 56 ft. trees, 725 ft. from runway, 155 ft. left of centerline, 12:1 slope to clear
RY 06 FIRST HALF, TREES WITHIN 90 FT OF CTLN.
15 ft. road
RWY 24 ADDTNL OBSTRS, +35 TO +62 FT TREES, DIST 320-400 FT, 80-120 FT L.

Runway 11/29

Dimensions: 1590 x 70 ft. / 485 x 21 m
Surface: turf, in fair condition
Runway edge lights: non-standard
RUNWAY 11  RUNWAY 29
Latitude: 40-01.645168N40-01.606395N
Longitude: 074-41.622142W074-41.285158W
Elevation: 73.0 ft.78.0 ft.
Traffic pattern: rightleft
Runway heading: 111 magnetic, 099 true291 magnetic, 279 true
Obstructions: 38 ft. trees, 10 ft. from runway, 100 ft. left of centerline63 ft. tree, 1500 ft. from runway, 23:1 slope to clear

Airport Ownership and Management from official FAA records

Ownership: Privately-owned
Owner: CENTRAL JERSEY R.W. INC
3 BARBARA DRIVE
CROSSWICKS, NJ 08515
Phone 609-915-2870
Manager: ERIKA PEARSON
3 BRIARDALE COURT
COLUMBUS, NJ 08022
Phone 609-915-1280

Airport Operational Statistics

Aircraft based on the field: 4
Single engine airplanes: 3
Helicopters: 1
    
Aircraft operations: avg 56/week *
80% local general aviation
20% transient general aviation
* for 12-month period ending 31 October 2021

Additional Remarks

NSTD LIGHTING RY 11/29 OTS INDEFLY.
FOR CD CTC MC GUIRE APCH AT 609-754-2767.
DEER & BIRDS ON & INVOF ARPT.
TSNT ACFT CALL 609-915-2870 FOR GATE ACES.

Instrument Procedures

There are no published instrument procedures at 2N6.

Some nearby airports with instrument procedures:

KWRI - McGuire Field (Joint Base Mc Guire Dix Lakehurst) Airport (5 nm E)
N14 - Flying W Airport (8 nm SW)
KVAY - South Jersey Regional Airport (9 nm SW)
N87 - Trenton-Robbinsville Airport (12 nm N)
KPNE - Northeast Philadelphia Airport (15 nm W)
KNEL - Lakehurst Maxfield Field Airport (16 nm E)
KTTN - Trenton Mercer Airport (16 nm N)
19N - Camden County Airport (19 nm SW)
KMJX - Ocean County Airport (19 nm E)
 
Loc | Ops | Rwys | IFR | FBO | Links
Com | Nav | Svcs | Stats | Notes
Area around 2N6 (Redwing Airport)
 
Road maps at: MapQuest Bing Google
 
Aerial photo
WARNING: Photo may not be current or correct
Aerial photo of 2N6 (Redwing Airport)
Looking north.

Do you have a better or more recent aerial photo of Redwing Airport that you would like to share? If so, please send us your photo.

 
Sectional chart

 
Airport distance calculator
Flying to Redwing Airport? Find the distance to fly.

From to 2N6

Sunrise and sunset
Times for 13-Aug-2022
 Local
(UTC-4)
 Zulu
(UTC)
Morning civil twilight05:4009:40
Sunrise06:0910:09
Sunset19:5823:58
Evening civil twilight20:2700:27

Current date and time
Zulu (UTC)  13-Aug-2022 22:45:52
Local (UTC-4)  13-Aug-2022 18:45:52
 
METAR
KWRI 
5nm E 
132156Z AUTO 00000KT 10SM CLR 27/08 A3004 RMK AO2 SLP172 T02660081 $
KVAY 
9nm SW 
ASOS 119.325 609-267-1176
132154Z AUTO VRB03KT 10SM CLR 28/08 A3004 RMK AO2 SLP172 T02830083
KPNE 
15nm W 
132154Z 10SM CLR 28/08 A3005 RMK AO2 SLP175 T02780078
KTTN 
16nm N 
ASOS 133.70 609-538-8690
132153Z 00000KT 10SM FEW001 26/07 A3004 RMK AO2 SLP164 T02610072
KNEL 
16nm E 
132200Z AUTO 00000KT 10SM CLR 27/08 A3003 RMK AO2 SLP168 T02670083 $
KMJX 
19nm E 
AWOS-3 119.875 732-244-4450
031308Z AUTO 06008KT 10SM OVC011 13/10 A3018 RMK AO2
TAF
KWRI 
5nm E 
131800Z 1318/1424 02010G18KT 9999 SKC QNH3004INS BECMG 1323/1324 VRB03KT 9999 SCT050 QNH3004INS BECMG 1412/1413 07007KT 9999 FEW050 BKN150 QNH3000INS BECMG 1423/1424 VRB04KT 9999 VCSH SCT050 OVC110 QNH2999INS TX29/1320Z TN13/1410Z
KPNE 
15nm W 
131739Z 1318/1418 02005G15KT P6SM SKC FM140000 VRB02KT P6SM FEW250 FM141500 18004KT P6SM FEW200
KTTN 
16nm N 
131739Z 1318/1418 35010KT P6SM SKC FM140000 VRB02KT P6SM FEW250 FM141500 21004KT P6SM FEW200
NOTAMs
Click for the latest NOTAMs
NOTAMs are issued by the DoD/FAA and will open in a separate window not controlled by AirNav.

 

 
 

Would you like to see your business listed on this page?

 If your business provides an interesting product or service to pilots, flight crews, aircraft, or users of the Redwing Airport, you should consider listing it here.  To start the listing process, click on the button below
 
Add a business
 

Other Pages about Redwing Airport

Update a link
 
Copyright © AirNav, LLC. All rights reserved. Privacy Policy  Contact